Theta_e
282 282 282 283 282 282 282 282 282 282 282 282 283 282 282 282 279 278 277 279 279 281 280 280 281 279 280 280 280 279 279 281 280 280 279 279 278 280 283 285 286 286 287 287 287 287 288 288 289 289 290 290 290 291 291 290 291 291 291 292 292 294 294 293 293 293 294 295 295 296 294 295 296 295
281 281 281 282 282 281 282 282 282 282 282 282 282 282 282 282 280 279 277 278 280 280 280 280 280 280 279 280 280 280 279 280 280 279 279 278 278 280 282 282 283 284 286 285 285 286 287 288 288 288 288 289 289 290 290 290 290 291 291 292 293 293 294 294 293 293 293 294 293 294 295 295 294 295
281 281 280 281 281 281 281 280 281 280 281 281 282 282 282 282 281 280 279 276 279 280 280 280 280 280 280 279 279 279 279 279 279 279 278 278 279 279 279 280 282 283 283 284 285 286 287 287 288 288 288 288 288 289 289 289 289 289 289 291 292 292 293 292 292 292 292 292 293 293 293 294 295 295
281 281 280 280 280 279 280 280 280 280 280 280 281 281 281 281 280 280 279 277 278 281 280 280 280 279 279 279 279 279 279 279 278 278 278 278 278 278 278 278 280 281 282 283 284 285 286 286 287 287 287 287 287 287 287 288 288 288 289 290 291 290 291 290 290 290 291 291 291 292 292 293 293 294
280 280 279 279 278 279 279 279 279 280 280 279 280 280 280 280 280 279 278 277 277 279 280 280 280 280 278 278 279 278 278 278 278 278 278 278 278 278 278 278 279 280 281 282 283 285 285 286 286 286 286 285 285 286 287 286 286 287 288 288 290 289 289 289 289 290 289 290 290 291 292 293 293 292
279 279 279 278 277 278 278 278 279 279 279 279 279 279 279 279 279 280 278 278 277 277 278 278 279 278 278 277 279 277 277 277 278 277 277 278 278 277 278 278 278 280 281 282 283 284 285 285 285 285 284 284 284 285 286 285 286 287 287 286 286 287 287 288 288 288 289 290 291 291 292 292 292 292
278 278 278 277 277 277 278 278 278 278 278 278 278 278 278 278 278 279 279 278 276 276 277 277 276 277 277 277 277 277 277 277 277 276 277 277 277 277 278 278 278 279 281 282 283 284 283 284 284 284 283 283 284 284 285 285 285 285 285 285 285 285 285 286 287 288 288 289 290 290 290 290 291 292
278 278 277 277 277 277 278 277 277 277 277 277 277 277 277 277 277 278 278 278 277 276 275 275 276 276 276 276 277 277 277 277 276 276 277 277 276 277 277 278 278 279 281 282 282 282 283 283 283 282 282 282 283 283 284 284 284 284 283 283 283 284 285 286 286 286 287 288 289 290 290 291 291 290
278 278 278 277 277 277 277 277 277 277 276 276 276 276 277 276 277 276 277 277 277 276 275 275 276 276 276 276 276 277 276 276 276 276 276 276 276 277 278 278 278 279 281 281 281 281 281 281 281 281 281 281 282 282 283 283 283 283 282 281 282 284 284 285 285 285 286 286 286 287 289 289 289 290
278 278 278 277 277 277 278 277 277 276 276 276 275 275 276 276 276 275 275 276 275 275 275 275 274 275 275 275 276 276 276 275 275 276 276 276 276 276 276 277 278 278 278 278 279 279 279 279 280 280 279 280 281 281 282 282 282 281 280 280 282 283 284 285 285 285 285 285 285 286 287 288 289 288
278 278 278 277 277 277 278 277 277 276 276 275 275 275 275 275 275 275 275 275 274 274 274 274 274 274 275 275 274 276 277 276 275 274 274 274 276 276 276 276 278 279 279 279 279 278 278 278 278 278 278 279 279 280 281 280 280 279 279 280 282 283 284 284 284 284 284 285 284 285 285 286 287 288
277 277 277 277 277 277 278 278 277 277 276 276 275 276 275 275 274 274 274 274 274 274 273 273 273 274 274 274 275 276 275 274 274 275 274 273 274 275 276 277 276 278 278 277 276 276 276 276 276 276 276 277 277 278 278 278 278 277 279 281 282 283 283 284 284 284 284 284 284 284 284 284 285 287
277 277 277 277 277 277 278 279 278 277 277 276 275 275 275 274 274 274 274 274 273 273 273 273 274 273 273 274 274 274 274 273 274 275 274 273 274 275 275 277 278 278 276 276 275 275 275 274 274 274 274 275 275 276 277 277 276 277 280 282 282 283 283 283 283 283 283 284 284 284 284 284 284 285
276 276 277 277 278 278 279 279 280 280 279 279 277 277 275 274 273 273 272 272 272 273 272 272 273 272 273 274 274 274 274 275 275 274 274 273 274 275 275 276 278 276 275 274 274 274 275 273 273 273 273 274 274 274 275 275 276 278 281 281 282 282 282 282 283 283 283 283 283 283 283 283 283 283
275 276 276 276 277 279 279 279 280 281 281 281 280 280 278 277 274 272 271 271 272 271 271 272 273 273 273 274 275 274 274 274 274 274 274 273 274 274 273 272 275 276 275 274 272 272 274 273 272 272 272 273 273 274 274 276 278 279 280 281 281 282 282 282 282 282 282 282 283 283 283 283 283 283
276 276 276 276 276 277 278 278 279 280 282 282 282 282 281 280 279 278 275 273 272 271 271 271 272 273 273 274 275 274 274 274 274 274 274 274 273 273 273 273 272 276 275 273 272 272 274 273 272 271 272 272 273 273 274 277 279 280 281 281 281 281 281 281 282 281 282 282 282 282 282 282 282 282
276 276 276 276 276 276 278 279 278 278 278 281 282 283 283 282 282 281 281 280 276 274 272 272 273 274 274 274 275 275 274 276 274 274 273 274 274 275 274 274 274 275 274 273 271 270 272 272 271 271 272 272 272 272 273 276 278 280 280 280 280 280 281 281 281 281 281 281 281 282 282 282 281 281
276 276 276 276 276 276 276 277 277 277 277 277 278 279 281 281 282 283 283 282 281 279 276 275 274 276 277 275 276 277 277 275 274 274 273 274 274 274 274 275 274 273 273 271 270 268 270 271 270 270 271 272 271 272 273 275 278 279 279 279 280 280 280 280 280 280 280 281 281 281 281 281 281 281
277 277 276 276 277 277 276 276 277 276 277 276 276 275 275 276 278 280 281 282 282 282 281 279 278 278 279 278 278 277 277 276 276 276 274 274 275 275 274 271 271 271 272 271 269 266 270 271 269 270 270 271 271 272 272 274 276 278 278 278 279 279 279 279 279 279 280 280 280 280 280 280 281 281
277 277 276 276 276 277 277 278 280 279 277 276 274 273 273 273 274 274 278 280 282 281 281 281 281 280 279 280 278 277 276 276 276 276 273 271 270 270 270 270 271 268 271 271 269 266 267 270 268 268 270 270 270 271 271 273 275 276 276 277 277 278 278 278 278 279 279 280 279 279 280 280 280 280
277 276 276 276 276 276 276 278 280 281 280 275 273 272 271 271 271 271 274 277 280 281 282 282 283 283 282 282 282 281 281 279 277 274 271 270 270 268 268 270 270 269 269 269 270 268 266 268 268 267 269 269 269 269 270 271 273 274 275 276 276 276 277 277 278 278 278 278 278 279 279 279 279 278
277 277 278 277 276 276 276 278 280 281 281 277 274 272 271 271 271 272 273 273 274 277 279 280 281 282 282 282 283 283 283 282 281 274 270 272 270 269 269 268 270 269 268 268 270 266 265 267 268 266 267 268 269 269 270 270 271 272 272 274 274 275 275 276 277 277 277 277 278 278 278 278 278 275
277 276 277 278 277 276 276 278 279 280 280 278 276 274 273 272 272 274 274 273 272 272 272 273 274 276 278 279 279 279 281 282 281 278 275 273 270 270 270 268 267 266 267 268 269 265 265 266 267 267 264 264 267 268 269 269 269 270 270 270 270 273 274 275 275 275 275 276 277 277 277 278 277 274
279 277 275 277 279 280 280 280 280 281 281 279 277 276 274 273 273 276 274 273 273 272 272 272 273 273 275 276 276 277 277 278 279 277 274 272 271 271 270 269 267 267 267 268 269 266 266 267 265 267 265 262 261 266 268 268 269 269 269 269 269 271 272 272 272 273 274 274 275 276 276 276 276 274
279 278 277 275 277 280 281 282 282 282 282 282 279 277 276 276 277 278 275 274 276 273 272 272 272 272 273 273 274 274 274 275 275 274 274 272 272 271 270 269 268 266 267 269 272 267 264 266 264 265 264 264 263 263 266 266 268 268 268 269 268 269 269 269 270 269 271 272 273 274 275 276 277 275
278 278 278 276 277 279 281 281 282 283 283 283 282 281 282 282 282 279 279 278 276 275 275 275 274 274 273 272 272 272 273 273 272 273 272 272 271 271 271 270 269 268 267 268 271 268 266 264 265 263 263 262 262 264 262 263 266 267 269 269 269 269 269 268 268 268 268 269 269 271 272 276 275 276
278 278 276 277 278 280 281 281 282 283 283 283 282 284 284 284 284 283 282 280 279 277 275 275 274 274 274 272 272 272 271 272 272 271 270 270 270 270 270 270 270 269 269 267 268 267 266 264 265 263 262 263 261 262 262 261 264 267 267 267 268 268 268 268 267 267 268 268 269 272 273 273 274 275
278 277 276 276 279 280 281 281 282 282 282 281 283 283 283 283 282 281 280 279 278 277 276 274 274 274 274 274 272 272 272 272 272 270 269 268 269 268 268 269 268 268 268 267 267 267 267 265 264 265 264 262 261 260 260 263 264 265 264 267 267 267 267 267 266 267 267 268 268 269 269 269 270 271
277 279 280 281 281 282 282 282 282 282 282 282 282 282 282 281 280 279 278 278 277 276 275 275 274 274 273 273 273 273 272 270 268 267 267 267 267 267 267 266 266 265 266 266 267 267 266 265 264 264 264 263 261 261 261 261 262 263 264 263 263 265 266 266 266 266 267 267 267 268 268 269 269 270
281 281 280 278 277 277 277 276 276 277 277 279 280 280 280 279 279 278 277 277 276 275 275 274 273 273 274 272 271 269 268 267 267 266 265 265 264 264 264 263 264 264 264 264 265 265 266 266 265 264 263 263 263 261 262 261 261 263 264 263 263 264 265 266 266 266 266 266 267 267 268 269 269 270
272 273 274 274 275 275 275 275 275 275 276 275 276 277 277 278 278 277 277 276 275 275 274 274 274 274 272 269 267 267 267 266 266 267 265 265 264 264 263 262 261 262 263 264 264 265 266 266 266 265 262 262 262 262 262 263 261 261 263 264 263 260 263 265 265 265 266 266 267 267 268 268 269 270
268 268 271 271 270 270 270 270 271 272 272 274 275 275 275 276 276 276 277 277 275 274 274 273 273 270 267 267 268 267 266 266 266 266 265 264 263 263 262 261 261 262 262 263 263 264 265 265 265 265 265 263 261 261 262 262 261 262 262 262 263 263 263 263 264 265 266 266 265 265 267 267 268 269
268 269 269 269 270 271 271 271 271 271 272 272 273 272 273 274 274 274 273 273 273 273 273 272 271 271 270 268 267 265 265 265 265 266 264 263 262 262 262 261 261 261 261 262 263 263 263 263 264 264 264 264 264 262 261 260 261 262 261 261 262 262 263 264 264 264 265 265 264 264 265 267 268 269
273 272 271 272 272 272 272 271 271 271 271 271 271 272 273 272 272 272 271 271 271 272 271 271 270 269 269 268 267 265 265 265 265 264 264 262 262 260 260 260 260 261 261 261 261 262 262 262 262 262 262 262 262 262 262 260 260 261 262 262 261 261 263 263 264 265 265 264 264 263 264 265 267 268
275 272 272 272 272 272 271 271 270 270 270 270 270 270 270 271 270 270 270 270 270 270 269 269 269 269 268 267 267 266 265 265 264 262 263 262 261 260 260 260 260 260 260 260 260 261 261 261 261 260 260 261 260 261 264 263 260 261 261 261 262 262 262 263 263 264 264 264 265 263 263 264 265 268
273 272 271 271 269 269 268 268 268 268 267 267 267 267 266 267 268 267 267 268 268 268 268 268 268 267 267 267 266 266 265 265 264 262 261 261 260 260 260 260 260 260 260 260 260 261 261 260 260 258 257 257 257 257 259 266 266 263 261 261 262 262 262 262 263 263 264 264 265 264 262 262 264 266
269 268 268 267 266 266 265 266 266 265 266 265 265 265 265 265 265 265 266 266 266 266 266 267 267 267 266 266 265 265 264 263 262 262 261 261 261 260 259 259 259 259 259 260 260 260 260 259 259 258 257 256 255 255 258 261 263 266 263 261 261 262 262 262 262 262 264 264 264 264 263 263 264 266
266 266 266 265 264 264 264 264 263 263 263 262 262 262 263 263 263 263 263 263 263 264 264 264 264 265 265 265 264 263 263 263 262 262 261 261 259 259 259 259 259 259 259 259 260 260 260 259 258 258 257 255 255 255 256 259 260 261 266 264 261 261 262 261 261 261 262 264 264 264 265 264 264 266
263 262 262 261 260 260 259 259 259 259 258 259 259 259 260 260 261 261 261 261 261 262 263 263 263 263 263 263 263 263 262 262 261 260 260 260 259 259 259 259 258 258 258 258 259 259 259 258 258 258 258 256 256 256 257 256 257 260 263 265 263 261 262 262 261 262 262 262 263 265 265 266 268 270
259 258 258 257 256 256 256 256 256 256 256 257 257 258 259 259 259 259 259 260 261 261 261 261 261 262 261 262 262 262 261 261 260 260 259 259 259 259 258 258 258 258 257 257 257 258 258 258 259 258 258 258 259 260 259 259 259 260 260 262 266 264 263 263 262 262 262 263 264 263 262 264 263 266
255 254 254 254 254 254 254 254 254 254 254 255 256 258 258 257 257 258 259 260 259 258 258 259 259 259 259 260 260 260 259 259 259 258 258 258 258 258 258 258 258 258 257 257 257 257 258 259 260 262 260 260 259 258 257 256 256 258 259 261 264 266 267 267 264 263 262 263 263 262 262 262 263 264
252 252 252 251 252 253 253 252 253 253 253 254 255 256 256 256 256 258 258 257 256 256 257 257 257 258 258 258 258 258 258 258 258 258 257 257 257 257 258 258 257 257 256 256 257 257 259 260 259 258 258 257 256 255 255 256 256 257 258 260 261 264 265 266 267 266 265 264 263 262 262 263 264 263
253 251 251 251 252 252 252 252 252 252 253 253 254 254 255 255 255 255 255 255 255 256 256 256 257 257 257 257 257 257 257 257 257 257 257 257 256 256 256 257 257 256 256 256 257 258 258 258 258 257 256 255 255 256 255 256 257 257 258 258 259 260 261 264 264 266 267 267 267 266 265 264 262 261
249 249 249 248 249 249 249 250 250 251 252 252 253 253 254 254 254 254 254 254 254 254 255 255 255 255 255 256 256 255 256 256 256 256 256 256 256 256 256 256 256 256 256 256 256 256 257 256 256 256 255 254 255 255 255 256 256 257 258 258 258 258 258 260 260 263 264 264 266 268 269 269 269 269
248 248 248 248 248 248 249 249 250 250 251 252 252 252 253 253 253 253 253 252 252 253 253 254 254 255 254 255 255 254 255 257 257 256 256 256 256 256 256 256 256 256 256 256 255 255 255 255 255 255 254 255 255 255 256 257 257 257 257 256 256 257 258 258 258 258 259 260 264 267 268 269 269 269
Wind_Speed
5 5 5 5 5 3 3 2 2 2 2 2 2 2 4 4 3 1 2 2 3 2 5 4 3 5 2 1 1 1 1 2 3 2 3 3 4 8 12 12 13 13 13 14 15 15 15 16 17 18 19 20 20 21 22 23 24 25 26 26 27 28 29 29 28 28 28 29 29 30 30 30 29 29
4 5 5 5 5 3 4 3 2 2 2 2 2 2 2 2 4 3 3 3 2 2 3 4 3 4 3 1 0 1 0 2 2 3 3 4 4 10 11 12 12 12 13 13 14 14 15 16 16 17 18 19 20 21 22 23 24 25 25 26 27 27 27 28 27 27 28 29 29 29 31 30 30 30
5 6 6 4 5 4 4 3 2 2 2 2 2 2 2 2 2 3 2 3 2 3 4 2 1 2 2 1 1 1 1 1 3 3 3 4 7 11 8 11 12 12 12 13 13 13 14 15 16 17 17 18 20 21 22 23 24 24 25 25 25 25 26 27 28 28 28 28 29 30 30 31 31 31
4 6 6 5 5 4 4 4 3 3 2 2 2 2 2 2 2 2 4 6 7 2 2 1 2 2 2 3 3 2 0 0 3 3 4 5 8 6 5 9 11 12 12 12 12 13 14 15 15 16 17 18 19 21 22 22 23 24 24 24 25 25 26 26 27 27 28 29 29 29 30 30 31 31
5 5 6 5 4 5 5 4 3 3 3 3 2 2 2 3 3 5 5 6 7 3 2 3 3 1 1 4 1 2 3 3 3 4 4 5 5 6 5 5 9 11 12 12 11 12 13 14 15 15 16 17 19 21 21 22 22 22 23 23 24 25 25 26 26 27 27 28 29 29 30 31 31 32
3 5 6 5 5 4 5 4 4 4 4 4 3 3 4 4 4 5 5 6 4 6 1 3 1 2 1 4 1 2 5 6 5 5 5 5 5 5 5 5 5 11 12 12 11 12 13 14 14 15 16 18 19 20 20 20 21 22 22 23 23 24 25 25 26 26 28 29 29 29 30 31 31 32
5 5 5 5 5 4 5 4 4 4 4 4 4 4 3 4 5 5 6 4 5 6 5 2 4 3 2 4 4 3 4 5 5 6 6 5 5 5 5 5 5 9 12 12 12 12 13 13 13 14 16 18 19 19 20 20 20 21 21 21 22 23 23 24 26 27 28 29 29 30 30 31 32 32
6 6 6 5 5 5 5 4 4 3 3 4 4 4 4 4 5 5 5 6 5 3 5 3 3 2 3 4 4 4 5 6 6 6 6 6 6 6 5 6 6 8 12 12 12 11 12 13 13 15 16 18 19 19 19 19 19 20 20 21 21 22 23 24 25 26 27 28 29 29 30 31 32 32
6 6 6 6 6 6 5 4 4 5 6 4 4 4 4 5 4 3 4 5 5 5 7 5 3 3 5 5 5 5 6 6 6 6 6 6 6 6 6 5 6 11 13 13 12 10 11 12 14 15 15 17 18 19 19 19 19 19 20 20 20 22 24 24 25 26 27 27 28 28 29 30 31 32
6 6 6 6 7 7 7 6 5 5 7 5 5 5 5 5 4 5 5 4 5 6 8 7 5 4 5 5 6 5 5 7 7 6 5 5 5 5 5 6 5 5 5 5 5 6 8 10 15 14 14 17 18 19 19 18 18 19 19 20 20 22 23 24 25 25 26 27 27 27 28 29 31 31
5 5 5 6 7 8 7 7 8 7 6 6 7 7 6 5 5 5 5 5 6 7 7 6 7 6 5 6 7 4 4 7 6 7 7 5 3 4 5 6 5 5 6 8 9 7 8 13 12 13 13 16 17 18 18 18 18 18 19 19 21 23 23 24 24 25 26 27 28 27 28 28 29 31
5 5 5 6 7 8 7 7 7 7 7 6 6 5 5 5 6 6 5 5 6 6 7 7 6 5 6 5 7 5 5 6 5 4 4 8 6 5 5 7 7 6 6 6 4 5 7 10 12 11 10 13 14 16 16 16 16 18 18 20 22 23 23 23 24 24 25 27 27 28 28 28 28 30
4 5 6 7 7 7 7 9 7 8 7 6 6 5 6 6 6 5 4 5 5 5 5 7 5 6 7 7 5 5 6 6 7 3 3 7 7 7 7 6 6 6 5 6 6 6 4 7 8 6 5 6 9 11 14 13 15 15 18 21 22 22 23 23 23 23 25 26 27 28 29 28 28 28
5 6 6 6 8 10 10 10 12 12 13 12 9 6 7 7 6 6 5 5 6 5 6 7 6 6 9 7 6 6 6 4 4 5 5 7 7 7 8 7 5 3 3 6 9 6 4 5 8 6 6 5 6 6 8 8 12 18 22 21 22 23 23 23 23 23 24 25 26 27 28 28 28 28
7 6 6 5 7 9 9 10 13 13 14 15 15 13 12 10 10 9 8 8 6 6 7 6 5 7 9 9 5 7 6 5 6 6 5 7 7 7 7 8 2 4 1 7 9 9 4 3 8 6 5 5 5 6 8 16 21 20 20 21 21 22 23 23 24 24 24 25 26 27 27 28 28 29
7 6 6 6 5 6 8 7 8 12 15 16 16 16 16 16 17 15 13 10 6 8 7 6 8 8 9 10 5 5 5 6 5 7 6 7 7 8 8 8 8 2 4 7 10 14 2 2 6 7 4 4 5 6 11 20 22 20 20 21 21 22 23 24 24 24 25 25 25 26 27 27 28 28
8 7 7 6 6 6 11 8 7 7 8 13 16 17 17 18 19 20 21 18 12 5 7 8 11 10 8 9 9 8 6 5 6 6 7 7 7 8 9 9 8 8 4 6 9 13 7 2 6 6 4 4 5 6 9 17 21 20 19 20 21 22 23 24 24 24 25 25 26 26 27 27 27 28
9 9 7 8 8 7 7 7 7 7 7 7 7 8 9 10 14 20 22 20 22 16 11 12 13 12 8 10 8 5 7 8 7 6 8 7 8 8 10 10 8 4 3 4 7 11 6 1 5 8 5 4 6 6 9 16 20 19 18 19 20 22 24 24 23 24 24 26 26 26 27 27 27 28
9 8 7 8 8 9 9 9 9 8 8 7 6 7 9 9 9 9 12 14 14 13 13 14 15 13 10 11 11 6 8 10 9 8 8 8 9 8 6 4 4 5 4 4 3 7 9 3 8 9 5 5 6 6 8 13 18 17 16 18 20 23 24 23 23 24 24 25 26 26 26 27 27 27
9 8 7 9 11 11 9 8 13 12 6 6 9 10 10 9 7 8 10 12 13 12 11 11 11 10 9 10 8 7 7 7 6 6 1 0 1 1 7 10 2 4 2 5 5 5 9 2 7 11 6 7 8 6 6 10 14 13 15 18 21 22 23 23 23 23 25 26 26 26 26 26 26 27
8 8 8 9 9 10 8 8 12 14 11 7 10 10 11 10 8 10 7 13 20 22 22 23 23 22 20 19 20 19 20 13 8 3 5 9 4 5 8 9 6 4 3 4 6 5 9 5 5 9 8 7 9 8 6 5 7 9 16 20 20 21 21 22 22 24 25 25 26 26 25 25 25 28
8 10 9 9 8 8 7 8 12 13 11 8 10 9 10 12 12 11 4 6 9 17 20 22 23 23 24 25 26 26 25 23 16 9 11 9 6 8 8 10 5 4 3 6 6 3 7 5 4 8 9 9 5 4 4 4 3 7 12 16 19 19 19 20 23 24 25 25 25 25 26 25 24 16
7 8 7 12 11 9 9 11 11 13 12 8 9 9 8 12 14 14 3 7 7 6 7 9 11 12 16 15 14 15 21 23 20 12 11 5 9 10 8 5 3 7 2 3 7 4 4 2 4 3 7 7 5 4 2 2 4 6 7 10 11 14 18 20 20 22 23 24 24 25 25 24 21 13
8 7 6 8 13 16 16 16 17 17 17 12 9 7 9 12 17 9 5 9 7 9 8 9 8 11 9 9 9 9 7 10 10 6 5 6 8 10 9 7 5 7 2 3 8 4 3 3 4 1 3 5 7 2 5 7 5 6 6 9 9 12 15 16 15 18 21 22 24 24 23 22 21 14
8 6 5 6 10 15 17 17 18 18 19 18 11 12 12 14 14 10 8 9 10 9 9 10 9 7 6 7 5 6 6 5 6 6 8 6 6 8 9 9 7 6 4 4 6 2 4 2 5 4 6 6 9 11 9 8 8 5 5 6 9 10 10 11 10 11 15 20 21 23 21 22 24 18
7 7 4 6 8 14 16 17 18 19 19 21 14 14 19 20 20 15 11 10 9 10 11 11 11 9 7 7 7 9 8 9 9 9 8 8 6 6 7 9 10 7 4 4 10 7 6 8 5 7 6 6 10 8 13 12 7 7 4 5 8 9 9 12 11 11 11 11 12 14 19 25 22 21
7 4 4 6 10 14 15 17 18 19 21 19 17 23 24 24 25 21 12 8 8 8 9 9 10 9 8 7 7 7 8 9 8 6 4 5 5 5 5 5 5 6 2 2 4 5 6 8 5 6 8 7 10 10 10 10 9 4 9 6 6 8 9 10 11 10 10 11 12 20 20 19 19 20
3 3 4 4 9 12 13 16 17 19 19 15 20 21 22 22 20 12 9 9 8 7 8 8 8 9 8 8 7 8 7 7 7 5 3 4 5 4 4 4 4 4 3 5 6 7 8 9 8 7 8 8 8 9 11 9 9 9 11 9 8 9 9 9 10 9 9 11 12 12 12 12 12 13
2 3 7 10 13 14 15 16 16 15 16 18 19 20 20 18 9 6 5 6 6 7 8 8 8 8 7 8 8 5 2 2 3 2 3 3 4 3 2 2 1 1 3 4 7 8 8 8 8 7 7 8 8 9 8 13 11 10 7 12 12 6 10 10 9 9 10 11 12 12 12 12 13 12
13 12 11 10 10 8 8 7 6 7 8 14 17 18 17 9 7 6 6 7 9 10 9 8 9 9 8 6 2 2 3 4 5 5 4 4 4 3 3 3 4 3 5 6 6 8 9 8 8 7 7 7 8 10 9 11 13 9 9 9 11 12 7 7 9 10 11 13 13 13 12 12 12 12
3 5 5 4 6 6 8 8 8 9 9 8 7 5 6 5 5 6 5 6 8 9 8 7 7 7 3 1 2 3 4 5 5 5 5 4 4 3 2 4 6 3 5 5 6 7 8 9 8 8 8 8 8 10 10 9 12 13 10 6 8 10 10 9 9 10 11 12 13 13 12 11 11 11
1 1 2 3 1 1 1 2 1 2 2 4 5 4 4 5 5 6 9 9 6 6 6 7 7 4 1 4 5 3 4 5 4 4 5 5 4 3 3 4 6 4 4 5 5 6 7 7 7 7 9 8 8 8 8 9 11 12 12 8 8 9 9 8 10 11 12 12 12 12 12 11 11 11
1 0 0 1 3 3 4 2 2 2 3 3 4 3 4 4 4 5 5 6 7 7 7 8 8 9 6 6 3 4 5 5 4 4 5 4 4 3 5 6 4 4 4 4 3 4 5 6 7 8 8 8 9 8 8 9 9 8 9 9 7 8 8 7 9 11 13 12 12 12 13 11 9 10
3 3 3 4 4 5 4 5 5 4 4 5 5 4 4 4 4 4 5 6 6 6 7 8 8 7 7 7 4 4 5 6 4 5 6 5 4 5 7 7 6 4 4 4 4 4 3 4 5 6 8 8 8 9 9 10 11 5 7 7 7 7 8 7 9 11 11 10 12 13 13 12 10 9
5 5 5 4 3 3 2 2 3 3 4 4 5 5 5 4 4 4 5 5 6 6 7 7 8 8 7 8 7 8 7 6 5 3 5 5 6 8 6 5 5 4 4 4 4 4 3 4 5 6 4 2 3 5 13 13 8 8 6 6 7 7 8 7 10 10 12 12 10 11 13 12 10 9
1 3 2 2 3 3 3 4 4 4 4 4 5 5 5 5 5 6 6 7 7 7 7 7 7 7 7 7 8 8 8 8 7 6 6 6 6 7 6 7 4 3 3 4 4 3 2 4 4 5 6 6 5 6 2 6 7 7 7 8 8 7 8 11 10 10 10 10 10 10 11 12 11 11
2 2 2 3 2 3 3 3 3 3 4 4 4 4 5 5 5 5 7 8 7 6 7 7 7 7 7 6 7 7 6 6 6 7 6 7 6 6 5 7 6 5 5 5 3 4 3 5 4 4 5 6 6 6 7 2 8 9 9 8 9 7 8 10 10 10 9 10 11 10 11 11 11 11
2 2 2 2 3 3 3 3 3 3 4 4 4 4 4 5 5 6 6 6 6 6 7 7 7 8 8 6 6 7 7 6 5 5 6 6 6 5 6 6 3 4 5 5 3 3 3 5 5 5 4 6 7 8 8 4 5 4 2 1 9 12 10 9 9 10 11 10 10 10 10 10 11 11
2 2 2 2 2 2 1 2 2 2 2 2 3 4 4 5 5 5 5 6 6 6 7 7 7 7 8 8 7 6 6 6 6 7 6 5 6 6 5 5 5 2 2 3 3 4 4 5 5 5 5 6 7 8 8 9 10 8 6 11 12 12 10 9 10 10 11 12 11 9 9 10 12 17
3 2 2 2 1 1 1 1 1 1 1 2 2 4 4 4 5 5 5 6 6 7 7 7 8 8 7 7 7 6 6 5 5 5 5 5 5 5 4 2 2 2 2 3 3 4 4 5 5 4 4 6 8 7 7 9 12 10 8 9 13 11 10 10 11 11 11 10 11 11 11 9 9 9
3 3 1 1 1 0 0 1 1 1 1 2 2 3 3 4 4 4 4 5 6 5 5 5 6 6 6 6 5 5 5 6 5 4 4 4 4 4 5 4 3 3 3 5 5 6 5 3 3 7 8 7 6 5 6 6 7 5 3 4 7 14 17 14 10 10 10 11 10 10 10 10 10 10
2 2 0 1 1 0 0 1 1 1 1 1 1 2 3 3 3 6 6 6 4 4 5 5 5 5 5 5 3 3 4 5 5 4 3 3 3 4 4 3 3 3 3 5 5 5 4 3 4 4 4 4 4 3 5 7 8 9 7 7 6 12 15 15 15 14 11 10 9 8 9 8 8 9
0 0 0 1 0 1 1 1 2 1 1 1 1 2 2 4 4 4 3 4 5 4 5 5 6 5 5 5 4 3 3 4 4 3 3 3 3 3 4 4 3 4 4 6 6 7 7 6 5 5 6 4 4 3 6 7 7 9 10 10 9 8 11 13 12 14 15 14 11 8 7 8 9 9
2 2 2 1 1 2 2 2 2 2 2 2 2 2 2 2 4 5 3 2 3 3 4 4 5 5 4 5 3 3 2 3 3 3 3 3 3 3 4 4 3 3 4 5 6 6 6 7 6 5 5 5 3 3 6 7 8 8 9 9 8 8 9 10 9 9 8 7 9 11 14 14 13 14
3 3 2 2 2 2 3 2 2 2 2 2 2 3 3 3 3 4 3 3 3 3 3 3 3 4 5 3 3 3 4 5 3 2 2 2 2 3 3 3 3 4 4 4 5 7 6 6 6 5 5 6 4 5 6 6 7 8 8 9 9 7 7 7 9 10 9 8 11 16 16 17 16 17
Wind_Direction
122 121 127 115 121 115 106 94 89 88 87 110 122 139 150 154 161 197 243 246 223 181 199 212 169 175 184 157 143 94 26 21 12 346 333 332 330 325 328 327 330 335 341 347 345 340 335 331 329 330 329 330 331 331 332 333 331 329 328 326 325 324 322 325 329 329 329 325 321 318 319 316 316 312
127 121 117 125 117 116 112 107 104 109 115 127 132 121 111 147 178 191 215 258 196 211 188 223 186 182 191 186 97 146 124 5 349 331 324 327 323 319 319 320 323 331 339 342 338 333 330 326 328 329 328 329 330 330 331 330 328 327 326 325 324 325 324 324 325 326 325 323 320 321 319 318 315 313
137 135 127 130 118 124 112 111 109 101 115 117 115 104 109 119 161 171 193 229 262 169 229 188 207 192 201 179 278 208 162 13 343 327 322 316 312 311 302 309 318 328 333 333 331 327 322 323 325 326 326 328 328 328 328 326 326 326 325 324 324 323 323 325 325 324 323 322 321 319 317 316 314 312
145 136 132 138 131 131 121 122 129 126 105 115 122 125 134 141 165 166 202 226 241 170 223 265 205 219 286 298 291 281 158 263 331 325 311 305 302 296 294 301 314 320 323 324 322 319 315 319 322 323 325 327 325 325 324 324 325 324 324 324 324 324 323 323 323 322 321 319 318 317 316 315 313 312
147 140 133 135 126 128 129 137 142 137 132 122 115 130 163 180 178 185 204 223 255 257 185 250 267 107 321 303 126 307 312 322 326 315 296 293 291 289 290 297 300 306 311 313 312 310 312 315 318 321 325 324 323 323 322 323 324 324 324 325 324 324 324 323 322 322 321 319 319 318 317 315 313 311
149 144 138 135 132 142 130 148 154 150 144 143 150 177 190 200 192 205 199 231 238 264 212 265 223 240 153 270 281 286 311 313 312 298 292 286 279 284 290 294 294 299 302 303 301 306 310 310 313 321 324 321 321 320 320 320 322 323 325 325 326 326 324 322 323 323 320 320 320 319 318 314 312 312
149 147 142 137 138 139 147 164 157 145 150 155 173 188 199 211 211 207 219 214 236 252 273 252 272 266 239 243 268 287 282 286 281 278 275 276 279 274 280 280 284 286 293 295 296 305 302 304 311 319 320 318 319 318 317 318 320 322 324 325 326 325 323 322 323 323 322 323 322 320 319 317 315 315
163 157 140 153 153 159 161 165 159 160 161 174 180 193 208 221 223 216 212 227 232 253 262 253 216 255 257 259 268 276 278 271 271 267 275 271 269 270 267 270 269 278 285 287 294 298 296 300 311 316 317 315 315 314 314 317 319 321 322 324 324 323 322 322 322 323 322 323 322 321 320 319 319 318
165 164 166 159 163 168 164 169 178 175 183 183 185 202 205 218 227 219 222 225 232 240 248 259 237 242 258 268 274 272 283 280 266 256 261 272 276 273 265 258 265 272 278 283 287 287 288 300 310 313 314 311 311 312 313 316 318 319 321 322 321 320 322 322 323 323 323 323 322 321 320 318 318 317
176 171 168 169 171 175 177 184 177 180 190 179 197 202 211 212 219 226 225 225 232 241 251 254 272 241 245 271 257 247 253 275 288 285 266 255 254 258 264 258 255 252 264 272 272 268 282 298 306 310 309 306 308 309 311 314 316 318 319 319 318 320 321 322 323 324 323 324 323 321 320 320 318 318
175 177 174 176 184 186 188 179 186 182 185 192 204 204 204 204 209 225 221 219 231 237 251 257 251 266 256 244 269 244 248 269 272 288 306 289 219 227 255 278 271 263 263 261 265 270 288 297 299 300 300 300 303 305 309 312 313 315 316 315 318 321 322 322 323 324 324 324 324 323 321 320 318 317
184 182 187 193 196 196 191 189 184 176 189 184 207 204 194 200 208 221 219 220 229 239 245 250 257 253 265 258 250 262 253 264 256 225 260 290 293 284 270 261 272 271 273 275 257 248 271 285 287 283 279 286 295 301 305 305 307 309 310 317 319 320 321 323 323 323 324 324 323 323 322 320 318 317
191 195 200 205 206 208 206 203 190 194 185 170 196 204 185 199 203 217 219 221 227 242 244 256 253 260 260 251 254 254 240 238 270 285 265 274 277 283 285 271 253 261 273 282 275 261 260 298 293 287 280 275 288 294 296 298 302 304 313 317 318 319 321 322 323 324 324 323 323 323 322 321 319 318
203 211 208 212 209 209 209 206 205 204 204 205 202 188 180 189 196 205 207 218 223 232 240 243 244 256 255 250 229 251 249 249 259 263 256 270 283 287 282 277 243 182 273 298 296 276 244 291 291 275 277 279 281 290 296 295 302 310 314 316 318 320 321 322 323 323 323 323 322 322 321 321 320 318
204 211 212 210 209 211 212 214 214 215 214 215 217 216 204 196 188 183 198 222 212 214 237 242 237 242 260 260 227 238 253 238 239 247 257 264 276 280 296 296 275 155 350 309 303 295 220 270 286 278 268 278 280 282 290 300 308 312 314 316 319 319 320 321 322 323 323 322 321 321 320 320 320 319
211 206 201 208 202 216 211 201 210 220 224 224 224 225 222 216 215 211 200 202 203 215 222 236 236 235 241 261 237 233 227 236 234 240 241 247 256 268 268 269 276 269 51 324 306 295 231 252 278 275 256 273 277 273 295 306 310 313 316 318 318 319 320 321 323 323 322 321 320 319 320 320 319 319
215 214 204 207 215 219 219 213 211 210 224 232 233 234 234 233 226 225 225 223 219 201 212 237 254 232 233 253 246 208 214 221 242 237 244 244 250 255 262 264 278 290 40 323 298 292 291 317 284 280 262 274 280 278 288 300 306 312 316 317 317 318 319 320 321 322 321 320 319 319 319 319 319 318
220 217 202 207 221 212 208 209 206 210 214 217 227 236 235 234 234 234 235 232 231 224 226 236 245 248 204 234 247 198 196 213 231 235 250 251 251 251 254 274 278 291 20 289 306 289 289 99 303 285 286 286 279 277 286 299 304 310 314 316 317 317 318 320 321 320 320 319 319 319 319 319 319 317
225 222 217 220 230 228 211 211 206 203 212 212 224 233 239 239 239 236 235 232 232 231 229 230 237 248 237 237 247 220 210 221 229 227 242 248 255 271 299 309 241 271 228 222 239 271 292 13 308 288 298 300 284 280 279 288 295 305 314 317 317 317 316 318 320 320 319 319 319 319 319 319 319 318
229 224 215 216 232 235 230 216 211 214 201 213 229 234 243 245 243 242 236 242 247 243 240 241 245 246 243 245 236 222 215 224 227 238 248 44 119 236 262 263 213 234 197 197 208 264 280 342 301 294 299 294 291 287 275 283 288 302 317 319 317 314 314 317 319 319 319 320 319 318 319 320 320 320
230 225 217 223 232 239 238 224 217 219 205 215 226 235 245 249 252 251 233 238 246 248 250 253 254 257 257 252 251 250 245 241 232 193 221 230 174 221 251 263 257 240 169 217 208 253 282 304 300 297 295 296 291 287 269 266 273 302 319 317 312 310 312 316 319 319 319 319 319 318 319 320 321 322
235 229 213 219 231 237 242 229 228 226 217 223 227 230 245 256 258 258 211 224 241 251 256 259 260 261 261 260 261 260 257 253 243 203 225 224 186 225 237 259 273 286 200 222 208 245 260 301 296 301 299 294 240 248 261 256 249 304 312 308 306 305 307 314 318 318 318 319 319 319 320 321 323 321
234 240 225 223 227 236 243 242 237 233 227 230 233 224 233 252 257 259 192 231 235 233 236 249 253 257 258 257 255 255 256 253 250 234 229 190 195 234 239 239 289 296 225 182 171 204 259 272 295 326 325 304 284 223 238 212 282 295 310 306 302 300 309 313 314 315 316 318 318 318 320 321 323 318
241 230 224 224 232 239 242 241 237 233 229 226 231 223 232 246 255 260 239 241 227 239 229 248 238 245 248 249 249 256 259 256 255 218 200 186 213 234 246 240 225 250 247 162 174 223 277 252 274 292 278 303 305 317 300 293 291 294 305 304 297 307 312 311 310 311 313 317 317 318 319 319 320 317
251 249 215 175 221 233 240 241 241 239 236 233 232 232 237 239 251 263 262 257 234 244 247 254 254 250 244 241 237 233 232 222 223 218 225 206 207 224 237 245 240 243 226 170 188 185 265 261 276 277 275 251 268 297 296 297 296 285 294 292 301 308 311 310 310 309 314 315 314 315 316 317 318 318
252 250 240 204 214 229 237 241 244 246 245 245 244 243 243 247 249 252 252 256 254 251 257 261 263 260 251 245 240 235 225 225 217 221 222 225 206 216 224 232 246 255 258 187 223 245 257 272 253 272 270 272 278 280 296 299 291 284 278 288 295 303 311 310 311 309 315 313 310 313 314 316 317 315
256 255 230 231 229 235 241 245 248 251 256 258 256 259 263 266 270 272 270 266 257 254 254 256 258 262 260 253 242 234 232 231 224 219 208 210 205 209 218 231 237 251 305 132 208 230 245 260 250 247 270 273 284 292 281 285 303 312 306 300 297 305 306 308 307 310 313 311 307 311 314 311 313 314
251 255 242 239 242 248 253 260 264 266 267 266 267 269 270 273 274 272 271 271 273 272 268 262 265 267 264 258 248 234 231 235 224 210 201 207 219 213 218 220 225 238 245 241 239 238 239 247 255 246 254 269 274 282 291 278 265 290 305 302 299 299 303 307 305 304 309 311 309 313 314 315 316 318
223 235 253 258 269 273 278 284 284 281 279 278 277 279 279 281 285 283 283 281 283 273 274 277 279 281 271 261 259 270 253 170 118 162 216 198 203 201 204 218 263 257 239 234 240 240 237 241 252 250 246 248 257 266 269 281 292 292 294 305 308 314 308 302 302 309 316 314 310 313 312 312 312 314
284 294 315 337 346 344 338 331 319 311 306 300 293 289 285 277 269 259 263 263 266 268 270 267 269 273 279 270 253 123 140 180 210 199 207 195 207 188 215 248 248 227 239 241 240 240 241 243 244 242 245 244 243 261 264 279 286 284 292 290 297 304 278 301 312 311 315 318 312 310 308 307 307 309
345 332 326 317 320 334 323 316 307 302 302 301 299 302 298 292 284 280 267 261 261 262 264 267 271 277 281 87 135 212 190 217 217 196 209 207 214 180 191 230 257 253 244 227 231 230 237 239 240 239 245 248 249 249 262 265 278 288 286 287 308 298 302 308 307 308 316 314 309 303 302 306 306 305
298 320 328 323 322 293 301 295 270 266 265 277 295 295 295 288 280 279 284 290 293 289 278 276 282 291 224 248 244 229 223 228 219 204 206 209 206 185 183 231 247 235 248 233 228 227 234 243 246 250 246 250 255 265 263 261 266 275 285 291 287 280 284 295 306 312 316 314 307 303 302 305 307 306
284 88 335 302 301 298 293 294 292 296 298 303 300 292 290 287 278 274 264 266 270 274 278 275 271 272 270 263 244 230 245 237 220 221 217 220 188 207 199 225 238 230 240 244 240 235 222 234 242 248 255 261 261 267 273 276 259 255 278 292 288 282 284 291 306 311 315 312 305 302 302 304 304 304
225 243 246 258 264 273 282 296 308 314 319 313 311 308 304 302 295 280 277 276 278 282 282 281 279 274 273 268 250 235 244 256 228 217 216 220 186 197 216 227 235 225 229 252 258 267 260 247 246 254 255 248 246 244 245 252 267 268 277 283 278 276 283 294 310 312 310 302 303 301 301 304 308 305
238 226 239 256 264 280 296 322 344 352 349 348 354 349 350 349 335 329 319 311 306 299 292 287 283 277 271 266 266 260 254 252 245 205 216 210 209 216 215 219 232 220 218 239 252 258 278 295 312 308 289 250 255 216 223 233 258 272 270 268 266 275 286 303 314 312 306 300 295 295 298 300 304 310
10 30 47 44 44 38 37 19 20 8 9 3 3 350 350 346 355 355 347 343 341 324 312 300 289 284 277 269 269 264 264 260 251 237 226 213 215 222 224 231 236 233 220 238 249 258 265 280 290 297 303 309 315 309 314 236 243 266 264 279 285 286 298 309 307 301 300 298 299 300 298 305 308 311
63 58 56 65 53 44 43 10 26 9 7 3 351 351 339 336 340 341 335 333 321 319 318 314 306 304 293 280 275 271 266 258 253 247 238 235 224 226 230 240 236 240 241 246 243 260 257 270 269 266 282 289 287 275 273 273 281 285 274 273 288 289 303 307 304 304 301 300 299 299 300 303 304 306
97 76 84 62 57 41 28 26 23 5 3 351 342 339 338 331 328 332 336 331 328 326 324 321 314 312 308 300 285 278 273 264 258 254 247 237 226 224 230 239 240 234 245 251 244 251 258 260 258 254 255 269 284 288 296 302 297 297 259 308 303 298 304 300 302 309 306 301 297 299 302 299 302 305
75 86 72 83 44 54 52 38 31 17 352 345 344 336 329 326 329 330 334 328 324 324 324 324 321 318 315 311 300 287 280 274 262 258 253 245 234 234 238 238 246 235 230 254 251 255 257 254 253 257 249 256 260 277 295 299 287 287 280 285 284 287 291 300 305 306 304 305 303 301 295 294 294 298
78 88 95 93 56 66 56 31 33 355 348 333 337 323 322 324 326 324 322 325 332 337 331 325 325 324 320 317 313 304 295 282 277 276 271 257 250 244 245 244 240 243 240 257 268 263 261 260 265 259 253 258 273 289 294 285 282 277 270 267 265 277 295 306 304 306 302 301 306 307 308 314 311 316
105 95 95 119 113 105 89 325 320 330 323 308 323 316 318 309 314 313 317 331 338 329 324 320 323 325 320 319 319 315 301 296 287 277 271 266 260 257 255 251 251 241 250 267 270 274 265 280 298 300 302 300 302 305 286 276 275 280 287 284 285 293 297 305 305 301 298 303 305 306 310 316 316 322
131 123 139 158 140 220 198 246 266 262 274 281 303 309 305 307 294 311 319 322 318 313 316 317 323 323 320 315 309 302 287 283 288 290 285 277 273 280 277 265 263 264 249 264 272 271 293 322 324 312 292 294 296 285 279 282 290 302 307 308 300 304 308 311 310 304 298 299 304 306 311 312 321 322
115 154 230 264 259 238 224 244 246 245 265 276 290 298 305 301 302 304 310 312 316 315 314 317 319 319 315 315 308 296 290 288 287 287 280 268 254 261 269 273 274 276 270 273 280 285 292 303 309 310 302 291 265 249 272 282 286 295 305 315 317 317 309 312 314 312 312 310 306 302 307 315 325 324
189 206 229 230 243 254 256 248 260 260 264 270 276 284 278 277 289 294 299 294 295 297 306 307 310 312 310 313 309 298 283 283 287 279 269 266 257 256 268 279 280 273 273 273 284 288 297 304 306 305 301 280 273 266 272 282 291 299 303 305 310 311 310 315 316 312 304 297 313 325 329 329 325 319
210 205 226 232 231 248 253 252 249 265 264 265 271 269 271 276 277 285 283 273 270 280 292 294 299 302 306 306 312 306 297 289 285 264 263 266 267 264 263 274 283 281 273 280 292 294 301 307 307 307 279 273 265 259 273 279 290 302 301 307 304 305 306 316 325 330 332 320 322 334 338 337 336 333